This is the latest recevied weather packets stored in our database for station/object K5KVN. If no packets are shown the sender has not sent any weather packets the latest 10 day(s).
| Time | Temp. | Humidity | Pressure | Rain* | Wind** | Luminosity | Snow |
|---|---|---|---|---|---|---|---|
| 1787851076 | 32.78° C | 55% | 1019.4 hPa | 0 mm | - | - | - |
| 1787850534 | 32.22° C | 56% | 1019.4 hPa | 0 mm | - | - | - |
| 1787849872 | 32.22° C | 57% | 1019.6 hPa | 0 mm | - | - | - |
| 1787849270 | 31.67° C | 59% | 1019.8 hPa | 0 mm | - | - | - |
| 1787848670 | 31.11° C | 59% | 1019.9 hPa | 0 mm | - | - | - |
| 1787848070 | 31.11° C | 61% | 1019.8 hPa | 0 mm | - | - | - |
| 1787847472 | 30.56° C | 62% | 1019.9 hPa | 0 mm | - | - | - |
| 1787846930 | 30.56° C | 63% | 1019.8 hPa | 0 mm | - | - | - |
| 1787846270 | 30° C | 64% | 1019.7 hPa | 0 mm | - | - | - |
| 1787845674 | 29.44° C | 68% | 1019.7 hPa | 0 mm | - | - | - |
| 1787845129 | 28.89° C | 68% | 1019.7 hPa | 0 mm | - | - | - |
| 1787844526 | 28.33° C | 69% | 1019.5 hPa | 0 mm | - | - | - |
| 1787843867 | 27.78° C | 73% | 1019.5 hPa | 0 mm | - | - | - |
| 1787843268 | 27.22° C | 75% | 1019.5 hPa | 0 mm | - | - | - |
| 1787842667 | 26.67° C | 78% | 1019.5 hPa | 0 mm | - | - | - |
| 1787842064 | 26.11° C | 80% | 1019.5 hPa | 0 mm | - | - | - |
| 1787841464 | 25.56° C | 81% | 1019.6 hPa | 0 mm | - | - | - |
| 1787840924 | 24.44° C | 85% | 1019.5 hPa | 0 mm | - | - | - |
| 1787840265 | 23.89° C | 89% | 1019.5 hPa | 0 mm | - | - | - |
| 1787839662 | 22.78° C | 94% | 1019.3 hPa | 0 mm | - | - | - |
| 1787839063 | 21.67° C | 97% | 1019.4 hPa | 0 mm | - | - | - |
| 1787838461 | 21.67° C | 97% | 1019.4 hPa | 0 mm | - | - | - |
| 1787837920 | 21.11° C | 97% | 1019.2 hPa | 0 mm | - | - | - |
| 1787837318 | 20.56° C | 97% | 1019.3 hPa | 0 mm | - | - | - |
| 1787836659 | 20.56° C | 97% | 1019.3 hPa | 0 mm | - | - | - |
* Rain latest hour (hover to see other rain measurements)
** Current wind speed in m/s (hover to see current wind gust speed)